Station Historical Data
Daily Summary for October 11, 2017 Units:  English    Metric   Both
« Previous Day
Next Day »
Daily Weekly Monthly Yearly Custom
  High: Low: Average:
Temperature: 60.8 °F 51.2 °F 55.1 °F
Dew Point: 51.3 °F 48.3 °F 49.5 °F
Humidity: 90% 67% 82%
Wind Speed: 15.0mph 0.0mph 6.2mph
Wind Gust: 27.0mph - -
Wind- - NE
Pressure: 30.20 in 30.12 in -
Precipitation: 0.00 in    
Historical Graphs
 
 
Tabular Data for October 11, 2017
Time Temperature Dew Point Pressure Wind Wind Speed Wind Gust Humidity Rainfall Rate (Hourly)
00:04 60.8 °F 50.2 °F 30.17 in NE 1.0 mph 3.0 mph 68% 0.00 in
00:09 60.8 °F 50.2 °F 30.17 in Calm   4.0 mph 68% 0.00 in
00:14 60.8 °F 50.6 °F 30.17 in Calm     69% 0.00 in
00:19 60.6 °F 50.4 °F 30.17 in Calm   3.0 mph 69% 0.00 in
00:24 60.5 °F 50.7 °F 30.18 in Calm   3.0 mph 70% 0.00 in
00:29 60.3 °F 50.5 °F 30.17 in Calm   1.0 mph 70% 0.00 in
00:34 60.3 °F 50.5 °F 30.17 in Calm   2.0 mph 70% 0.00 in
00:44 60.3 °F 50.5 °F 30.17 in NE 2.0 mph 7.0 mph 70% 0.00 in
00:49 60.3 °F 50.5 °F 30.17 in NE 3.0 mph 4.0 mph 70% 0.00 in
00:54 60.2 °F 50.4 °F 30.16 in NE 2.0 mph 5.0 mph 70% 0.00 in
00:59 60.1 °F 50.3 °F 30.17 in NE 2.0 mph 4.0 mph 70% 0.00 in
01:04 60.0 °F 50.2 °F 30.17 in NE 2.0 mph 4.0 mph 70% 0.00 in
01:09 59.9 °F 49.7 °F 30.17 in NE 2.0 mph 6.0 mph 69% 0.00 in
01:14 59.9 °F 49.3 °F 30.17 in ENE 2.0 mph 4.0 mph 68% 0.00 in
01:19 59.8 °F 48.8 °F 30.17 in NE 3.0 mph 8.0 mph 67% 0.00 in
01:24 59.8 °F 48.8 °F 30.16 in ENE 3.0 mph 8.0 mph 67% 0.00 in
01:29 59.8 °F 49.2 °F 30.16 in NE 4.0 mph 8.0 mph 68% 0.00 in
01:34 59.7 °F 49.1 °F 30.16 in NE 3.0 mph 7.0 mph 68% 0.00 in
01:39 59.6 °F 49.4 °F 30.16 in ENE 2.0 mph 7.0 mph 69% 0.00 in
01:44 59.5 °F 49.3 °F 30.16 in ENE 2.0 mph 7.0 mph 69% 0.00 in
01:54 59.2 °F 49.4 °F 30.16 in Calm   4.0 mph 70% 0.00 in
01:59 59.0 °F 49.2 °F 30.16 in NE 2.0 mph 5.0 mph 70% 0.00 in
02:04 59.1 °F 49.3 °F 30.15 in NE 3.0 mph 8.0 mph 70% 0.00 in
02:09 59.0 °F 49.2 °F 30.15 in NE 3.0 mph 9.0 mph 70% 0.00 in
02:14 58.9 °F 49.5 °F 30.15 in ENE 3.0 mph 9.0 mph 71% 0.00 in
02:19 58.8 °F 49.4 °F 30.15 in ENE 7.0 mph 7.0 mph 71% 0.00 in
02:24 58.7 °F 49.3 °F 30.15 in NE 1.0 mph 7.0 mph 71% 0.00 in
02:29 58.6 °F 49.6 °F 30.15 in NE 1.0 mph 3.0 mph 72% 0.00 in
02:34 58.5 °F 49.1 °F 30.15 in NE 2.0 mph 9.0 mph 71% 0.00 in
02:39 58.5 °F 49.5 °F 30.15 in ENE 4.0 mph 7.0 mph 72% 0.00 in
02:44 58.4 °F 49.4 °F 30.15 in NE 3.0 mph 9.0 mph 72% 0.00 in
02:49 58.3 °F 49.3 °F 30.15 in NE 3.0 mph 9.0 mph 72% 0.00 in
02:54 58.3 °F 49.3 °F 30.15 in ENE 2.0 mph 9.0 mph 72% 0.00 in
02:59 58.3 °F 49.3 °F 30.15 in ENE 2.0 mph 8.0 mph 72% 0.00 in
03:04 58.3 °F 49.3 °F 30.16 in ENE 3.0 mph 8.0 mph 72% 0.00 in
03:09 58.3 °F 49.3 °F 30.15 in ENE 5.0 mph 8.0 mph 72% 0.00 in
03:14 58.2 °F 49.2 °F 30.15 in NE 3.0 mph 8.0 mph 72% 0.00 in
03:19 58.1 °F 49.1 °F 30.14 in NE 2.0 mph 7.0 mph 72% 0.00 in
03:24 58.1 °F 49.1 °F 30.14 in ENE 1.0 mph 8.0 mph 72% 0.00 in
03:29 57.9 °F 49.3 °F 30.14 in NE 5.0 mph 11.0 mph 73% 0.00 in
03:34 57.8 °F 49.2 °F 30.15 in ENE 3.0 mph 8.0 mph 73% 0.00 in
03:39 57.8 °F 49.2 °F 30.14 in NE 3.0 mph 8.0 mph 73% 0.00 in
03:44 57.7 °F 49.1 °F 30.14 in ENE 4.0 mph 7.0 mph 73% 0.00 in
03:49 57.7 °F 49.1 °F 30.15 in ENE 3.0 mph 7.0 mph 73% 0.00 in
03:54 57.5 °F 49.3 °F 30.15 in ENE 1.0 mph 5.0 mph 74% 0.00 in
03:59 57.5 °F 49.3 °F 30.15 in Calm   4.0 mph 74% 0.00 in
04:04 57.3 °F 49.1 °F 30.15 in NE 2.0 mph 4.0 mph 74% 0.00 in
04:09 57.2 °F 49.3 °F 30.15 in Calm   5.0 mph 75% 0.00 in
04:14 57.0 °F 49.2 °F 30.15 in NE 1.0 mph 5.0 mph 75% 0.00 in
04:19 57.0 °F 49.5 °F 30.15 in Calm     76% 0.00 in
04:24 56.9 °F 49.1 °F 30.15 in NE 3.0 mph 7.0 mph 75% 0.00 in
04:29 57.0 °F 49.2 °F 30.14 in North 2.0 mph 6.0 mph 75% 0.00 in
04:34 57.0 °F 49.2 °F 30.14 in ENE 4.0 mph 7.0 mph 75% 0.00 in
04:39 57.0 °F 49.2 °F 30.14 in ENE 3.0 mph 9.0 mph 75% 0.00 in
04:44 57.0 °F 49.2 °F 30.14 in ENE 3.0 mph 9.0 mph 75% 0.00 in
04:49 57.0 °F 49.2 °F 30.15 in ENE 3.0 mph 8.0 mph 75% 0.00 in
04:54 56.9 °F 49.1 °F 30.15 in ENE 4.0 mph 9.0 mph 75% 0.00 in
04:59 57.0 °F 49.5 °F 30.15 in ENE 3.0 mph 9.0 mph 76% 0.00 in
05:09 57.0 °F 49.5 °F 30.16 in ENE 3.0 mph 7.0 mph 76% 0.00 in
05:14 56.9 °F 49.4 °F 30.15 in ENE 3.0 mph 7.0 mph 76% 0.00 in
05:19 56.8 °F 49.3 °F 30.15 in ENE 3.0 mph 9.0 mph 76% 0.00 in
05:24 56.8 °F 49.3 °F 30.14 in NE 4.0 mph 11.0 mph 76% 0.00 in
05:29 56.8 °F 49.3 °F 30.15 in NE 4.0 mph 11.0 mph 76% 0.00 in
05:34 56.8 °F 49.3 °F 30.15 in NE 5.0 mph 9.0 mph 76% 0.00 in
05:39 56.8 °F 49.7 °F 30.15 in NE 2.0 mph 9.0 mph 77% 0.00 in
05:44 56.8 °F 49.7 °F 30.14 in NE 10.0 mph 13.0 mph 77% 0.00 in
05:49 56.8 °F 49.7 °F 30.14 in NE 5.0 mph 13.0 mph 77% 0.00 in
05:54 56.8 °F 49.7 °F 30.14 in NE 8.0 mph 9.0 mph 77% 0.00 in
05:59 56.8 °F 49.7 °F 30.15 in ENE 3.0 mph 10.0 mph 77% 0.00 in
06:04 56.8 °F 49.7 °F 30.15 in East 5.0 mph 10.0 mph 77% 0.00 in
06:09 56.8 °F 49.7 °F 30.14 in ENE 5.0 mph 10.0 mph 77% 0.00 in
06:14 56.8 °F 49.7 °F 30.12 in ENE 4.0 mph 11.0 mph 77% 0.00 in
06:19 56.8 °F 49.7 °F 30.13 in ENE 5.0 mph 12.0 mph 77% 0.00 in
06:24 56.8 °F 49.7 °F 30.14 in ENE 5.0 mph 12.0 mph 77% 0.00 in
06:29 56.8 °F 49.7 °F 30.15 in NE 2.0 mph 11.0 mph 77% 0.00 in
06:34 56.8 °F 50.0 °F 30.15 in NE 4.0 mph 8.0 mph 78% 0.00 in
06:39 56.8 °F 50.0 °F 30.16 in ENE 3.0 mph 9.0 mph 78% 0.00 in
06:44 56.8 °F 50.0 °F 30.16 in ENE 8.0 mph 10.0 mph 78% 0.00 in
06:49 56.8 °F 50.0 °F 30.16 in NE 4.0 mph 9.0 mph 78% 0.00 in
06:54 56.9 °F 50.1 °F 30.15 in NE 5.0 mph 14.0 mph 78% 0.00 in
06:59 56.8 °F 50.0 °F 30.14 in ENE 11.0 mph 14.0 mph 78% 0.00 in
07:19 56.7 °F 50.3 °F 30.15 in ENE 4.0 mph 9.0 mph 79% 0.00 in
07:24 56.7 °F 50.3 °F 30.15 in NE 12.0 mph 12.0 mph 79% 0.00 in
07:29 56.8 °F 50.4 °F 30.15 in NE 6.0 mph 13.0 mph 79% 0.00 in
07:34 56.8 °F 50.4 °F 30.15 in NE 6.0 mph 13.0 mph 79% 0.00 in
07:39 56.8 °F 50.7 °F 30.15 in ENE 5.0 mph 13.0 mph 80% 0.00 in
07:44 56.9 °F 50.8 °F 30.15 in ENE 6.0 mph 13.0 mph 80% 0.00 in
07:49 57.0 °F 50.9 °F 30.16 in NE 7.0 mph 13.0 mph 80% 0.00 in
07:54 57.1 °F 51.0 °F 30.16 in NE 6.0 mph 14.0 mph 80% 0.00 in
07:59 57.1 °F 51.0 °F 30.16 in NE 2.0 mph 13.0 mph 80% 0.00 in
08:04 57.1 °F 51.0 °F 30.16 in NE 7.0 mph 16.0 mph 80% 0.00 in
08:09 57.2 °F 51.1 °F 30.16 in ENE 7.0 mph 14.0 mph 80% 0.00 in
08:14 57.2 °F 51.1 °F 30.17 in NE 4.0 mph 14.0 mph 80% 0.00 in
08:19 57.2 °F 51.1 °F 30.16 in ENE 9.0 mph 17.0 mph 80% 0.00 in
08:24 57.2 °F 51.1 °F 30.16 in NE 6.0 mph 12.0 mph 80% 0.00 in
08:29 57.3 °F 51.2 °F 30.17 in ENE 5.0 mph 12.0 mph 80% 0.00 in
08:34 57.3 °F 51.2 °F 30.17 in ENE 6.0 mph 12.0 mph 80% 0.00 in
08:39 57.3 °F 51.2 °F 30.17 in NE 7.0 mph 14.0 mph 80% 0.00 in
08:44 57.3 °F 51.2 °F 30.17 in NE 8.0 mph 14.0 mph 80% 0.00 in
08:49 57.3 °F 51.2 °F 30.17 in NE 8.0 mph 15.0 mph 80% 0.00 in
08:54 57.4 °F 51.3 °F 30.17 in NE 6.0 mph 16.0 mph 80% 0.00 in
08:59 57.4 °F 51.3 °F 30.17 in NNE 5.0 mph 14.0 mph 80% 0.00 in
09:04 57.5 °F 51.0 °F 30.17 in NE 8.0 mph 15.0 mph 79% 0.00 in
09:09 57.4 °F 50.9 °F 30.17 in NE 8.0 mph 16.0 mph 79% 0.00 in
09:14 57.5 °F 51.0 °F 30.17 in NE 8.0 mph 15.0 mph 79% 0.00 in
09:19 57.5 °F 50.7 °F 30.17 in NE 11.0 mph 16.0 mph 78% 0.00 in
09:24 57.5 °F 50.7 °F 30.18 in ENE 8.0 mph 18.0 mph 78% 0.00 in
09:29 57.5 °F 50.7 °F 30.17 in ENE 9.0 mph 18.0 mph 78% 0.00 in
09:34 57.3 °F 50.5 °F 30.17 in NE 12.0 mph 17.0 mph 78% 0.00 in
09:39 57.2 °F 50.1 °F 30.17 in ENE 13.0 mph 18.0 mph 77% 0.00 in
09:44 57.1 °F 50.0 °F 30.16 in ENE 12.0 mph 18.0 mph 77% 0.00 in
09:54 57.2 °F 49.7 °F 30.16 in ENE 10.0 mph 27.0 mph 76% 0.00 in
09:59 57.2 °F 49.7 °F 30.16 in ENE 10.0 mph 27.0 mph 76% 0.00 in
10:04 57.2 °F 49.3 °F 30.17 in ENE 9.0 mph 20.0 mph 75% 0.00 in
10:09 57.1 °F 49.2 °F 30.17 in ENE 9.0 mph 18.0 mph 75% 0.00 in
10:14 57.1 °F 49.2 °F 30.17 in NE 8.0 mph 17.0 mph 75% 0.00 in
10:19 57.1 °F 49.2 °F 30.16 in ENE 12.0 mph 14.0 mph 75% 0.00 in
10:24 57.0 °F 49.5 °F 30.15 in NE 11.0 mph 20.0 mph 76% 0.00 in
10:29 56.7 °F 49.2 °F 30.15 in NE 6.0 mph 18.0 mph 76% 0.00 in
10:34 56.4 °F 49.3 °F 30.16 in NE 10.0 mph 21.0 mph 77% 0.00 in
10:39 56.1 °F 49.3 °F 30.16 in ENE 14.0 mph 18.0 mph 78% 0.01 in
10:44 55.7 °F 49.3 °F 30.16 in ENE 12.0 mph 16.0 mph 79% 0.01 in
10:49 55.4 °F 49.3 °F 30.15 in ENE 9.0 mph 20.0 mph 80% 0.02 in
10:54 55.1 °F 49.4 °F 30.15 in ENE 10.0 mph 20.0 mph 81% 0.02 in
10:59 55.0 °F 49.3 °F 30.15 in NE 10.0 mph 18.0 mph 81% 0.03 in
11:04 54.9 °F 49.5 °F 30.15 in NE 8.0 mph 18.0 mph 82% 0.03 in
11:09 54.8 °F 49.4 °F 30.16 in NE 8.0 mph 14.0 mph 82% 0.03 in
11:14 54.8 °F 49.7 °F 30.16 in NNE 13.0 mph 14.0 mph 83% 0.03 in
11:19 55.0 °F 49.9 °F 30.16 in NNE 10.0 mph 14.0 mph 83% 0.03 in
11:24 55.1 °F 50.0 °F 30.17 in ENE 8.0 mph 15.0 mph 83% 0.04 in
11:29 55.1 °F 50.0 °F 30.16 in ENE 5.0 mph 14.0 mph 83% 0.04 in
11:34 55.2 °F 50.4 °F 30.17 in ESE 4.0 mph 14.0 mph 84% 0.04 in
11:39 55.2 °F 50.4 °F 30.17 in NE 3.0 mph 11.0 mph 84% 0.03 in
11:44 55.2 °F 50.1 °F 30.17 in ESE 5.0 mph 16.0 mph 83% 0.03 in
11:49 55.3 °F 50.5 °F 30.17 in ENE 8.0 mph 18.0 mph 84% 0.02 in
11:54 55.5 °F 50.4 °F 30.17 in ENE 8.0 mph 18.0 mph 83% 0.02 in
11:59 55.6 °F 50.5 °F 30.17 in ENE 7.0 mph 18.0 mph 83% 0.01 in
12:04 55.5 °F 50.4 °F 30.18 in ENE 7.0 mph 16.0 mph 83% 0.01 in
12:09 55.4 °F 50.3 °F 30.17 in ENE 7.0 mph 16.0 mph 83% 0.01 in
12:14 55.3 °F 50.2 °F 30.17 in NE 7.0 mph 15.0 mph 83% 0.01 in
12:19 55.3 °F 50.2 °F 30.18 in ENE 5.0 mph 13.0 mph 83% 0.01 in
12:24 55.2 °F 50.1 °F 30.18 in ENE 5.0 mph 15.0 mph 83% 0.01 in
12:29 55.1 °F 50.4 °F 30.18 in ENE 4.0 mph 12.0 mph 84% 0.01 in
12:34 55.0 °F 50.3 °F 30.20 in NE 4.0 mph 9.0 mph 84% 0.02 in
12:39 54.9 °F 50.5 °F 30.20 in NE 5.0 mph 9.0 mph 85% 0.03 in
12:44 54.8 °F 50.4 °F 30.18 in NE 5.0 mph 11.0 mph 85% 0.03 in
12:49 54.8 °F 50.7 °F 30.18 in NE 6.0 mph 11.0 mph 86% 0.03 in
12:54 54.6 °F 50.5 °F 30.18 in NE 6.0 mph 14.0 mph 86% 0.04 in
12:59 54.6 °F 50.8 °F 30.18 in NE 3.0 mph 11.0 mph 87% 0.05 in
13:04 54.7 °F 50.9 °F 30.17 in NE 7.0 mph 12.0 mph 87% 0.05 in
13:09 54.7 °F 50.9 °F 30.17 in NE 7.0 mph 14.0 mph 87% 0.05 in
13:14 54.6 °F 50.8 °F 30.18 in NE 6.0 mph 15.0 mph 87% 0.06 in
13:24 54.5 °F 50.7 °F 30.17 in NE 2.0 mph 15.0 mph 87% 0.05 in
13:29 54.4 °F 50.9 °F 30.17 in NE 10.0 mph 14.0 mph 88% 0.05 in
13:34 54.4 °F 50.9 °F 30.17 in NE 4.0 mph 13.0 mph 88% 0.04 in
13:39 54.4 °F 50.9 °F 30.17 in NE 7.0 mph 13.0 mph 88% 0.03 in
13:44 54.3 °F 50.8 °F 30.17 in NE 6.0 mph 12.0 mph 88% 0.04 in
13:49 54.1 °F 50.6 °F 30.15 in ENE 8.0 mph 18.0 mph 88% 0.04 in
13:54 54.0 °F 50.5 °F 30.16 in ENE 7.0 mph 20.0 mph 88% 0.03 in
13:59 54.0 °F 50.5 °F 30.16 in NE 8.0 mph 17.0 mph 88% 0.02 in
14:04 54.1 °F 50.6 °F 30.16 in NE 7.0 mph 17.0 mph 88% 0.02 in
14:09 54.0 °F 50.2 °F 30.17 in NE 7.0 mph 15.0 mph 87% 0.01 in
14:14 54.0 °F 50.2 °F 30.17 in NE 7.0 mph 15.0 mph 87% 0.01 in
14:19 53.9 °F 50.1 °F 30.16 in NE 7.0 mph 15.0 mph 87% 0.01 in
14:29 53.9 °F 50.1 °F 30.17 in NNE 12.0 mph 19.0 mph 87% 0.01 in
14:34 53.9 °F 49.8 °F 30.17 in NE 3.0 mph 17.0 mph 86% 0.01 in
14:39 54.0 °F 49.9 °F 30.17 in ENE 11.0 mph 17.0 mph 86% 0.01 in
14:44 53.9 °F 49.8 °F 30.16 in ENE 5.0 mph 15.0 mph 86% 0.00 in
14:49 54.0 °F 49.9 °F 30.16 in NE 7.0 mph 20.0 mph 86% 0.00 in
14:54 54.0 °F 49.9 °F 30.15 in NE 12.0 mph 19.0 mph 86% 0.00 in
14:59 54.0 °F 49.9 °F 30.15 in ENE 5.0 mph 13.0 mph 86% 0.00 in
15:04 54.0 °F 49.9 °F 30.14 in NE 8.0 mph 17.0 mph 86% 0.00 in
15:09 54.0 °F 49.9 °F 30.13 in NE 9.0 mph 17.0 mph 86% 0.00 in
15:14 53.9 °F 49.8 °F 30.13 in ENE 10.0 mph 27.0 mph 86% 0.00 in
15:19 53.8 °F 49.7 °F 30.13 in ENE 12.0 mph 27.0 mph 86% 0.00 in
15:24 53.7 °F 49.6 °F 30.13 in ENE 11.0 mph 20.0 mph 86% 0.00 in
15:29 53.6 °F 49.5 °F 30.14 in East 11.0 mph 18.0 mph 86% 0.00 in
15:34 53.5 °F 49.4 °F 30.13 in ENE 9.0 mph 18.0 mph 86% 0.00 in
15:39 53.4 °F 49.3 °F 30.13 in NE 12.0 mph 19.0 mph 86% 0.00 in
15:44 53.5 °F 49.4 °F 30.12 in NE 9.0 mph 18.0 mph 86% 0.00 in
15:49 53.5 °F 49.1 °F 30.12 in NE 12.0 mph 19.0 mph 85% 0.00 in
15:54 53.5 °F 49.1 °F 30.13 in NE 8.0 mph 18.0 mph 85% 0.00 in
15:59 53.4 °F 49.0 °F 30.12 in ENE 11.0 mph 22.0 mph 85% 0.00 in
16:04 53.4 °F 49.0 °F 30.13 in ENE 11.0 mph 22.0 mph 85% 0.00 in
16:09 53.4 °F 49.0 °F 30.15 in ENE 8.0 mph 18.0 mph 85% 0.00 in
16:14 53.3 °F 48.9 °F 30.16 in NE 6.0 mph 15.0 mph 85% 0.00 in
16:24 53.5 °F 49.4 °F 30.14 in ENE 11.0 mph 18.0 mph 86% 0.00 in
16:29 53.6 °F 49.2 °F 30.13 in ENE 4.0 mph 23.0 mph 85% 0.01 in
16:34 53.7 °F 49.3 °F 30.14 in ENE 9.0 mph 23.0 mph 85% 0.02 in
16:39 53.6 °F 49.2 °F 30.13 in ENE 9.0 mph 17.0 mph 85% 0.03 in
16:44 53.3 °F 48.9 °F 30.12 in ENE 12.0 mph 23.0 mph 85% 0.03 in
16:49 53.1 °F 48.7 °F 30.13 in NNE 5.0 mph 25.0 mph 85% 0.03 in
16:54 53.1 °F 48.7 °F 30.13 in NE 6.0 mph 15.0 mph 85% 0.04 in
16:59 53.0 °F 48.9 °F 30.13 in NE 6.0 mph 17.0 mph 86% 0.04 in
17:04 52.9 °F 48.8 °F 30.14 in NE 8.0 mph 17.0 mph 86% 0.04 in
17:09 52.8 °F 48.7 °F 30.14 in NE 8.0 mph 17.0 mph 86% 0.04 in
17:14 52.7 °F 48.6 °F 30.14 in NE 8.0 mph 19.0 mph 86% 0.04 in
17:19 52.8 °F 48.7 °F 30.14 in ENE 8.0 mph 19.0 mph 86% 0.04 in
17:24 52.7 °F 48.6 °F 30.15 in ENE 8.0 mph 13.0 mph 86% 0.04 in
17:34 52.6 °F 48.5 °F 30.16 in NE 6.0 mph 14.0 mph 86% 0.02 in
17:39 52.6 °F 48.5 °F 30.16 in NE 6.0 mph 14.0 mph 86% 0.02 in
17:44 52.5 °F 48.4 °F 30.16 in NE 3.0 mph 15.0 mph 86% 0.04 in
17:49 52.3 °F 48.5 °F 30.14 in ENE 9.0 mph 16.0 mph 87% 0.05 in
17:54 52.2 °F 48.4 °F 30.13 in ENE 11.0 mph 16.0 mph 87% 0.06 in
17:59 52.1 °F 48.3 °F 30.13 in NE 10.0 mph 21.0 mph 87% 0.06 in
18:04 52.0 °F 48.6 °F 30.14 in NE 9.0 mph 21.0 mph 88% 0.07 in
18:09 52.0 °F 48.6 °F 30.15 in NE 5.0 mph 14.0 mph 88% 0.07 in
18:14 52.0 °F 48.6 °F 30.14 in ENE 8.0 mph 12.0 mph 88% 0.07 in
18:29 51.9 °F 48.5 °F 30.14 in NE 6.0 mph 15.0 mph 88% 0.07 in
18:34 51.8 °F 48.4 °F 30.14 in NE 7.0 mph 15.0 mph 88% 0.07 in
18:39 51.8 °F 48.7 °F 30.15 in NE 8.0 mph 15.0 mph 89% 0.06 in
18:44 51.8 °F 48.7 °F 30.14 in NE 3.0 mph 15.0 mph 89% 0.04 in
18:49 51.7 °F 48.6 °F 30.14 in NE 8.0 mph 15.0 mph 89% 0.03 in
18:54 51.7 °F 48.6 °F 30.15 in NE 7.0 mph 15.0 mph 89% 0.01 in
18:59 51.7 °F 48.6 °F 30.15 in NE 5.0 mph 14.0 mph 89% 0.01 in
19:04 51.8 °F 48.7 °F 30.15 in NE 3.0 mph 10.0 mph 89% 0.00 in
19:09 51.8 °F 48.7 °F 30.16 in ENE 5.0 mph 12.0 mph 89% 0.00 in
19:14 51.7 °F 48.6 °F 30.16 in NE 3.0 mph 11.0 mph 89% 0.00 in
19:19 51.7 °F 48.6 °F 30.17 in NE 4.0 mph 13.0 mph 89% 0.00 in
19:24 51.7 °F 48.6 °F 30.17 in NNE 3.0 mph 12.0 mph 89% 0.00 in
19:29 51.7 °F 48.6 °F 30.18 in NE 4.0 mph 12.0 mph 89% 0.00 in
19:34 51.8 °F 48.7 °F 30.18 in NE 4.0 mph 14.0 mph 89% 0.00 in
19:39 51.7 °F 48.6 °F 30.19 in NE 6.0 mph 16.0 mph 89% 0.01 in
19:44 51.8 °F 48.7 °F 30.18 in NE 6.0 mph 16.0 mph 89% 0.01 in
19:49 51.7 °F 48.6 °F 30.18 in NE 6.0 mph 16.0 mph 89% 0.01 in
19:54 51.7 °F 48.9 °F 30.18 in ENE 13.0 mph 16.0 mph 90% 0.01 in
19:59 51.7 °F 48.9 °F 30.18 in ENE 4.0 mph 15.0 mph 90% 0.01 in
20:04 51.7 °F 48.9 °F 30.18 in NNE 3.0 mph 15.0 mph 90% 0.02 in
20:09 51.7 °F 48.9 °F 30.19 in NE 2.0 mph 12.0 mph 90% 0.02 in
20:14 51.7 °F 48.9 °F 30.19 in NE 7.0 mph 13.0 mph 90% 0.02 in
20:19 51.6 °F 48.8 °F 30.19 in NNE 5.0 mph 17.0 mph 90% 0.02 in
20:24 51.6 °F 48.8 °F 30.19 in NNE 3.0 mph 10.0 mph 90% 0.03 in
20:29 51.5 °F 48.7 °F 30.19 in NE 5.0 mph 12.0 mph 90% 0.03 in
20:34 51.5 °F 48.7 °F 30.19 in NE 6.0 mph 14.0 mph 90% 0.03 in
20:39 51.4 °F 48.6 °F 30.18 in NE 7.0 mph 19.0 mph 90% 0.02 in
20:44 51.3 °F 48.5 °F 30.17 in NE 7.0 mph 18.0 mph 90% 0.02 in
20:49 51.2 °F 48.4 °F 30.17 in NE 10.0 mph 20.0 mph 90% 0.02 in
20:54 51.2 °F 48.4 °F 30.16 in ENE 10.0 mph 25.0 mph 90% 0.02 in
20:59 51.3 °F 48.5 °F 30.16 in ENE 10.0 mph 25.0 mph 90% 0.02 in
21:04 51.3 °F 48.5 °F 30.17 in NE 11.0 mph 22.0 mph 90% 0.01 in
21:09 51.4 °F 48.6 °F 30.17 in NE 5.0 mph 22.0 mph 90% 0.01 in
21:14 51.4 °F 48.6 °F 30.17 in NE 8.0 mph 20.0 mph 90% 0.01 in
21:19 51.5 °F 48.7 °F 30.17 in ENE 9.0 mph 22.0 mph 90% 0.01 in
21:24 51.6 °F 48.8 °F 30.17 in NE 10.0 mph 22.0 mph 90% 0.01 in
21:29 51.6 °F 48.8 °F 30.17 in ENE 9.0 mph 17.0 mph 90% 0.01 in
21:34 51.6 °F 48.8 °F 30.18 in ENE 10.0 mph 17.0 mph 90% 0.01 in
21:39 51.6 °F 48.8 °F 30.18 in NE 11.0 mph 23.0 mph 90% 0.01 in
21:44 51.6 °F 48.8 °F 30.19 in NE 9.0 mph 17.0 mph 90% 0.01 in
21:49 51.6 °F 48.8 °F 30.20 in NE 8.0 mph 17.0 mph 90% 0.02 in
21:54 51.6 °F 48.5 °F 30.20 in NE 8.0 mph 17.0 mph 89% 0.02 in
21:59 51.6 °F 48.5 °F 30.19 in NE 8.0 mph 18.0 mph 89% 0.02 in
22:04 51.5 °F 48.4 °F 30.19 in NE 8.0 mph 18.0 mph 89% 0.02 in
22:09 51.5 °F 48.4 °F 30.19 in NE 9.0 mph 18.0 mph 89% 0.02 in
22:14 51.6 °F 48.5 °F 30.19 in NE 5.0 mph 16.0 mph 89% 0.02 in
22:19 51.5 °F 48.4 °F 30.19 in NE 8.0 mph 14.0 mph 89% 0.02 in
22:24 51.6 °F 48.5 °F 30.19 in NE 14.0 mph 22.0 mph 89% 0.01 in
22:29 51.5 °F 48.4 °F 30.19 in NE 7.0 mph 21.0 mph 89% 0.01 in
22:34 51.5 °F 48.4 °F 30.18 in NE 15.0 mph 19.0 mph 89% 0.01 in
22:39 51.5 °F 48.4 °F 30.18 in NE 7.0 mph 17.0 mph 89% 0.01 in
22:44 51.6 °F 48.5 °F 30.18 in NE 14.0 mph 18.0 mph 89% 0.01 in
22:49 51.6 °F 48.5 °F 30.18 in ENE 9.0 mph 18.0 mph 89% 0.00 in
22:54 51.6 °F 48.5 °F 30.18 in ENE 8.0 mph 14.0 mph 89% 0.00 in
22:59 51.6 °F 48.5 °F 30.18 in NE 8.0 mph 17.0 mph 89% 0.00 in
23:04 51.6 °F 48.5 °F 30.18 in NNE 4.0 mph 15.0 mph 89% 0.00 in
23:14 51.7 °F 48.6 °F 30.18 in ENE 8.0 mph 16.0 mph 89% 0.00 in
23:19 51.7 °F 48.6 °F 30.19 in NE 8.0 mph 17.0 mph 89% 0.00 in
23:29 51.8 °F 48.7 °F 30.18 in ENE 7.0 mph 13.0 mph 89% 0.00 in
23:34 51.8 °F 48.7 °F 30.18 in ENE 8.0 mph 15.0 mph 89% 0.00 in
23:39 51.8 °F 48.7 °F 30.18 in NE 12.0 mph 18.0 mph 89% 0.00 in
23:44 51.8 °F 48.7 °F 30.19 in ENE 8.0 mph 13.0 mph 89% 0.00 in
23:49 51.8 °F 48.7 °F 30.19 in ENE 7.0 mph 15.0 mph 89% 0.00 in
23:54 51.9 °F 48.8 °F 30.19 in NE 4.0 mph 18.0 mph 89% 0.00 in
23:59 51.9 °F 48.8 °F 30.19 in NE 4.0 mph 11.0 mph 89% 0.00 in
Buffalo, New York, USA
Compliments of Weather Underground - 2.25 mb